Terminal Aerodrome Forecast
Issued by NWS

Home | Current Version | Previous Version | Text Only | Print | Product List | Glossary On
Versions: 1 2 3 4 5 6 7 8 9 10 11 12 13 14 15 16 17 18 19 20 21 22 23 24 25 26 27 28
000
FTUS44 KLIX 181100
TAFHDC
TAF
KHDC 181129Z 1812/1912 VRB03KT P6SM SCT040
     FM181400 10004KT P6SM BKN040
     FM190400 09004KT P6SM OVC025=

USA.gov is the U.S. government's official web portal to all federal, state and local government web resources and services.